This is the latest recevied weather packets stored in our database for station/object NO4D. If no packets are shown the sender has not sent any weather packets the latest 10 day(s).
| Time | Temp. | Humidity | Pressure | Rain* | Wind** | Luminosity | Snow |
|---|---|---|---|---|---|---|---|
| 1777760334 | 17.22° C | 55% | 1012.2 hPa | 0 mm | - | 76 W/m² | - |
| 1777760032 | 17.22° C | 56% | 1011.8 hPa | 0 mm | - | 112 W/m² | - |
| 1777759729 | 17.22° C | 57% | 1011.8 hPa | 0 mm | - | 92 W/m² | - |
| 1777759424 | 17.22° C | 58% | 1011.7 hPa | 0 mm | - | 84 W/m² | - |
| 1777759121 | 16.67° C | 56% | 1011.8 hPa | 0 mm | - | 86 W/m² | - |
| 1777758819 | 16.67° C | 58% | 1011.6 hPa | 0 mm | - | 84 W/m² | - |
| 1777758515 | 16.67° C | 62% | 1011.6 hPa | 0 mm | - | 98 W/m² | - |
| 1777758212 | 17.22° C | 59% | 1011.5 hPa | 0 mm | - | 80 W/m² | - |
| 1777757909 | 17.78° C | 59% | 1011.6 hPa | 0 mm | - | 211 W/m² | - |
| 1777757606 | 17.78° C | 57% | 1011.5 hPa | 0 mm | - | 125 W/m² | - |
| 1777757305 | 18.33° C | 45% | 1011.3 hPa | 0 mm | - | 463 W/m² | - |
| 1777757003 | 17.78° C | 47% | 1011.5 hPa | 0 mm | - | 177 W/m² | - |
| 1777756700 | 18.33° C | 48% | 1011.5 hPa | 0 mm | - | 153 W/m² | - |
| 1777756395 | 19.44° C | 46% | 1011.5 hPa | 0 mm | - | 227 W/m² | - |
| 1777756093 | 18.89° C | 52% | 1011.4 hPa | 0 mm | - | 612 W/m² | - |
| 1777755790 | 17.78° C | 53% | 1011.4 hPa | 0 mm | - | 546 W/m² | - |
| 1777755488 | 17.78° C | 57% | 1011.8 hPa | 0 mm | - | 148 W/m² | - |
| 1777755183 | 17.22° C | 53% | 1011.7 hPa | 0 mm | - | 108 W/m² | - |
| 1777754881 | 17.22° C | 59% | 1011.5 hPa | 0 mm | - | 121 W/m² | - |
| 1777754578 | 17.78° C | 59% | 1011.5 hPa | 0 mm | - | 139 W/m² | - |
| 1777754275 | 17.78° C | 58% | 1011.7 hPa | 0 mm | - | 173 W/m² | - |
| 1777753973 | 17.78° C | 56% | 1011.8 hPa | 0 mm | - | 164 W/m² | - |
| 1777753673 | 17.78° C | 59% | 1011.8 hPa | 0 mm | - | 170 W/m² | - |
| 1777753371 | 17.78° C | 59% | 1011.7 hPa | 0 mm | - | 159 W/m² | - |
| 1777753069 | 17.78° C | 58% | 1012 hPa | 0 mm | - | 216 W/m² | - |
* Rain latest hour (hover to see other rain measurements)
** Current wind speed in m/s (hover to see current wind gust speed)